Flugplatz Büren am Schwalenberg (UL)

Hier findest Du alle Informationen zum Flugplatz Büren am Schwalenberg (UL).

Informationen für Piloten zum Flugplatz Büren am Schwalenberg

Hier findest Du alle relevanten Informationen, die Du als Pilot benötigst, um Büren am Schwalenberg anzufliegen.

Flugplatz: Büren am Schwalenberg ICAO-Code: UL Flugplatz
Frequenz Turm: 122,475 Mhz GAFOR Gebiet: 10
Frequenz Ground: 122,475 Mhz Mogas: nein
Platzrunde: SO 1800 ft Landegebühr: -
Platzhöhe: Sunrise: 03:05 Uhr UTC
Pisten: 01/19 - 1000 m x 30 m, GRAS Sunset: 19:49 Uhr UTC

Mitglieder, die in Büren am Schwalenberg fliegen

Flugwetter am Flugplatz Büren am Schwalenberg

Die METAR Information stammen aus EDLP (8.25 km entfernt).

METAR Code:
2024/05/07 08:20
EDLP 070820Z 31003KT 9999 FEW009 13/11 Q1016

Flugschulen am Flugplatz Büren am Schwalenberg

Am Flugplatz Büren am Schwalenberg gibt es leider keine Flugschule.

Benachbarte Flugplätze und Flugschulen

Es gibt 19 weitere Flugplätze in einem Umkreis von 50 km um den Flugplatz Büren am Schwalenberg.

Jetzt anmelden

Passwort vergessen

Umfrage Archiv

Wie häufig haltet Ihr die Halbkreisflugregel ein?

Eher häufig!
36 %
Immer!
30.7 %
Hin und wieder!
16.7 %
Nie!
9.5 %
Eher selten!
7.2 %
Stimmen: 264 | Diskussion
Anzeige: Roland Aircraft
Statistik Alle Mitglieder

Aktuell sind 17 Besucher online, davon 1 Mitglied und 16 Gäste.


Mitglieder online:
Nordex 

Anzeige: EasyVFR